TimeEST,TemperatureF,Dew PointF,Humidity,Sea Level PressureIn,VisibilityMPH,Wind Direction,Wind SpeedMPH,Gust SpeedMPH,PrecipitationIn,Events,Conditions,WindDirDegrees,DateUTC
12:15 AM,41.0,35.6,81,30.10,10.0,Calm,Calm,-,N/A,,Overcast,0,2013-11-03 04:15:00
12:35 AM,41.0,33.8,76,30.10,10.0,NE,5.8,-,N/A,,Overcast,40,2013-11-03 04:35:00
12:55 AM,41.0,33.8,76,30.10,10.0,North,3.5,-,N/A,,Overcast,10,2013-11-03 04:55:00
1:15 AM,39.2,32.0,75,30.11,10.0,Calm,Calm,-,N/A,,Scattered Clouds,0,2013-11-03 05:15:00
1:35 AM,37.4,32.0,81,30.12,10.0,Calm,Calm,-,N/A,,Clear,0,2013-11-03 05:35:00
1:55 AM,35.6,32.0,87,30.13,10.0,Calm,Calm,-,N/A,,Clear,0,2013-11-03 05:55:00
1:15 AM,35.6,32.0,87,30.13,10.0,Calm,Calm,-,N/A,,Clear,0,2013-11-03 06:15:00
1:35 AM,35.6,32.0,87,30.14,10.0,Calm,Calm,-,N/A,,Clear,0,2013-11-03 06:35:00
1:55 AM,35.6,32.0,87,30.15,10.0,Calm,Calm,-,N/A,,Clear,0,2013-11-03 06:55:00
2:15 AM,35.6,32.0,87,30.16,10.0,Calm,Calm,-,N/A,,Clear,0,2013-11-03 07:15:00
2:35 AM,33.8,32.0,93,30.17,10.0,Calm,Calm,-,N/A,,Clear,0,2013-11-03 07:35:00
2:55 AM,33.8,32.0,93,30.17,10.0,Calm,Calm,-,N/A,,Scattered Clouds,0,2013-11-03 07:55:00
3:15 AM,33.8,32.0,93,30.17,10.0,North,3.5,-,N/A,,Scattered Clouds,10,2013-11-03 08:15:00
3:35 AM,33.8,32.0,93,30.18,10.0,North,3.5,-,N/A,,Scattered Clouds,350,2013-11-03 08:35:00
3:55 AM,33.8,32.0,93,30.19,10.0,Calm,Calm,-,N/A,,Mostly Cloudy,0,2013-11-03 08:55:00
4:15 AM,33.8,32.0,93,30.20,10.0,Calm,Calm,-,N/A,,Mostly Cloudy,0,2013-11-03 09:15:00
4:35 AM,33.8,32.0,93,30.21,10.0,Calm,Calm,-,N/A,,Scattered Clouds,0,2013-11-03 09:35:00
4:55 AM,33.8,32.0,93,30.21,10.0,Calm,Calm,-,N/A,,Clear,0,2013-11-03 09:55:00
5:15 AM,33.8,32.0,93,30.22,10.0,Calm,Calm,-,N/A,,Clear,0,2013-11-03 10:15:00
5:35 AM,33.8,32.0,93,30.23,10.0,Calm,Calm,-,N/A,,Clear,0,2013-11-03 10:35:00
5:55 AM,32.0,28.4,87,30.24,10.0,Calm,Calm,-,N/A,,Clear,0,2013-11-03 10:55:00
6:15 AM,32.0,30.2,93,30.25,10.0,Calm,Calm,-,N/A,,Clear,0,2013-11-03 11:15:00
6:35 AM,32.0,28.4,87,30.26,10.0,Calm,Calm,-,N/A,,Clear,0,2013-11-03 11:35:00
6:55 AM,32.0,28.4,87,30.27,10.0,Calm,Calm,-,N/A,,Clear,0,2013-11-03 11:55:00
7:15 AM,30.2,28.4,93,30.28,7.0,Calm,Calm,-,N/A,,Clear,0,2013-11-03 12:15:00
7:35 AM,32.0,30.2,93,30.30,10.0,Calm,Calm,-,N/A,,Scattered Clouds,0,2013-11-03 12:35:00
7:55 AM,32.0,30.2,93,30.31,10.0,Calm,Calm,-,N/A,,Clear,0,2013-11-03 12:55:00
8:15 AM,33.8,32.0,93,30.31,10.0,NNE,4.6,-,N/A,,Clear,20,2013-11-03 13:15:00
8:35 AM,35.6,33.8,93,30.31,10.0,NNE,3.5,-,N/A,,Clear,20,2013-11-03 13:35:00
8:55 AM,39.2,32.0,75,30.32,10.0,NE,4.6,-,N/A,,Clear,40,2013-11-03 13:55:00
9:15 AM,41.0,33.8,76,30.33,10.0,NE,3.5,-,N/A,,Clear,40,2013-11-03 14:15:00
9:35 AM,42.8,33.8,70,30.34,10.0,ENE,3.5,-,N/A,,Clear,70,2013-11-03 14:35:00
9:55 AM,42.8,33.8,70,30.34,10.0,NNE,6.9,-,N/A,,Clear,30,2013-11-03 14:55:00
10:15 AM,42.8,32.0,66,30.35,10.0,NE,4.6,-,N/A,,Clear,40,2013-11-03 15:15:00
10:35 AM,44.6,32.0,61,30.35,10.0,ESE,6.9,-,N/A,,Scattered Clouds,110,2013-11-03 15:35:00
10:55 AM,44.6,32.0,61,30.36,10.0,East,4.6,-,N/A,,Mostly Cloudy,90,2013-11-03 15:55:00
11:15 AM,44.6,32.0,61,30.37,10.0,ENE,4.6,-,N/A,,Mostly Cloudy,60,2013-11-03 16:15:00
11:35 AM,44.6,33.8,66,30.37,10.0,NE,4.6,-,N/A,,Mostly Cloudy,50,2013-11-03 16:35:00
11:55 AM,44.6,32.0,61,30.37,10.0,Calm,Calm,-,N/A,,Scattered Clouds,0,2013-11-03 16:55:00
12:15 PM,44.6,32.0,61,30.36,10.0,ENE,3.5,-,N/A,,Scattered Clouds,70,2013-11-03 17:15:00
12:35 PM,48.2,32.0,54,30.36,10.0,ENE,5.8,-,N/A,,Mostly Cloudy,70,2013-11-03 17:35:00
12:55 PM,46.4,32.0,57,30.35,10.0,ESE,6.9,-,N/A,,Mostly Cloudy,110,2013-11-03 17:55:00
1:15 PM,46.4,32.0,57,30.35,10.0,SE,4.6,-,N/A,,Scattered Clouds,140,2013-11-03 18:15:00
1:35 PM,46.4,32.0,57,30.35,10.0,SSE,6.9,-,N/A,,Mostly Cloudy,150,2013-11-03 18:35:00
1:55 PM,46.4,32.0,57,30.35,10.0,East,6.9,-,N/A,,Mostly Cloudy,100,2013-11-03 18:55:00
2:15 PM,46.4,32.0,57,30.36,10.0,ENE,4.6,-,N/A,,Mostly Cloudy,70,2013-11-03 19:15:00
2:35 PM,46.4,32.0,57,30.36,10.0,East,5.8,-,N/A,,Mostly Cloudy,90,2013-11-03 19:35:00
2:55 PM,46.4,32.0,57,30.37,10.0,ENE,4.6,-,N/A,,Mostly Cloudy,60,2013-11-03 19:55:00
3:15 PM,44.6,32.0,61,30.37,10.0,Calm,Calm,-,N/A,,Mostly Cloudy,0,2013-11-03 20:15:00
3:35 PM,46.4,33.8,62,30.37,10.0,East,6.9,-,N/A,,Scattered Clouds,100,2013-11-03 20:35:00
3:55 PM,44.6,32.0,61,30.37,10.0,East,9.2,-,N/A,,Clear,100,2013-11-03 20:55:00
4:15 PM,44.6,32.0,61,30.36,10.0,ENE,9.2,-,N/A,,Clear,70,2013-11-03 21:15:00
4:35 PM,44.6,32.0,61,30.37,10.0,ENE,5.8,-,N/A,,Clear,70,2013-11-03 21:35:00
4:55 PM,42.8,32.0,66,30.38,10.0,East,5.8,-,N/A,,Clear,80,2013-11-03 21:55:00
5:15 PM,42.8,32.0,66,30.38,7.0,East,4.6,-,N/A,,Clear,80,2013-11-03 22:15:00
5:35 PM,41.0,32.0,70,30.38,7.0,Calm,Calm,-,N/A,,Clear,0,2013-11-03 22:35:00
5:55 PM,41.0,32.0,70,30.38,10.0,ENE,3.5,-,N/A,,Clear,70,2013-11-03 22:55:00
6:15 PM,41.0,32.0,70,30.39,10.0,Calm,Calm,-,N/A,,Clear,0,2013-11-03 23:15:00
6:35 PM,39.2,32.0,75,30.39,10.0,Calm,Calm,-,N/A,,Clear,0,2013-11-03 23:35:00
6:55 PM,37.4,32.0,81,30.40,10.0,Calm,Calm,-,N/A,,Clear,0,2013-11-03 23:55:00
7:15 PM,35.6,32.0,87,30.41,7.0,Calm,Calm,-,N/A,,Clear,0,2013-11-04 00:15:00
7:35 PM,35.6,32.0,87,30.41,7.0,Calm,Calm,-,N/A,,Clear,0,2013-11-04 00:35:00
7:55 PM,35.6,32.0,87,30.41,7.0,Calm,Calm,-,N/A,,Clear,0,2013-11-04 00:55:00
8:15 PM,37.4,33.8,87,30.41,10.0,Calm,Calm,-,N/A,,Clear,0,2013-11-04 01:15:00
8:35 PM,37.4,33.8,87,30.41,10.0,East,3.5,-,N/A,,Clear,90,2013-11-04 01:35:00
8:55 PM,39.2,33.8,81,30.41,10.0,East,3.5,-,N/A,,Clear,90,2013-11-04 01:55:00
9:15 PM,41.0,33.8,76,30.40,10.0,East,3.5,-,N/A,,Clear,100,2013-11-04 02:15:00
9:35 PM,41.0,33.8,76,30.41,10.0,East,3.5,-,N/A,,Clear,100,2013-11-04 02:35:00
9:55 PM,41.0,33.8,76,30.41,10.0,East,3.5,-,N/A,,Clear,90,2013-11-04 02:55:00
10:15 PM,41.0,33.8,76,30.41,10.0,East,4.6,-,N/A,,Clear,100,2013-11-04 03:15:00
10:35 PM,41.0,33.8,76,30.42,10.0,ESE,4.6,-,N/A,,Clear,110,2013-11-04 03:35:00
10:55 PM,41.0,33.8,76,30.42,10.0,ESE,4.6,-,N/A,,Clear,110,2013-11-04 03:55:00